White Plains, CT

1:29 PM EDT on June 23, 2017 (GMT -0400)
Westchester County

Weather History for KHPN - December, 2012

Change the Weather History Date:

Thursday, December 27, 2012

  Actual Average Record
Temperature  
Mean Temperature 32 °F -  
Max Temperature 37 °F 37 °F 57 °F (2011)
Min Temperature 28 °F 24 °F 5 °F (1989)
Degree Days  
Heating Degree Days 32    
Moisture  
Dew Point 30 °F    
Average Humidity 83    
Maximum Humidity 93    
Minimum Humidity 66    
Precipitation  
Precipitation 0.42 in - - ()
Sea Level Pressure  
Sea Level Pressure 29.49 in    
Wind  
Wind Speed 19 mph (NNW)    
Max Wind Speed 29 mph    
Max Gust Speed 39 mph    
Visibility 6 miles    
Events Rain , Snow    
Averages and records for this station are not official NWS values.
T = Trace of Precipitation, MM = Missing Value Source: NWS Daily Summary

Daily Weather History Graph

Daily Weather History Graph

Search for Another Location

Airport or City:

Trip Planner

Search our weather history database for the weather conditions in past years. The results will help you decide how hot, cold, wet, or windy it might be!

Date:

Astronomy

Dec. 27, 2012 Rise Set
Actual Time 7:19 AM EST 4:33 PM EST
Civil Twilight 6:47 AM EST 5:04 PM EST
Nautical Twilight 6:13 AM EST 5:39 PM EST
Astronomical Twilight 5:39 AM EST 6:12 PM EST
Moon 4:14 PM EST (12/27) 6:27 AM EST (12/27)
Length of Visible Light 10h 16m
Length of Day
9h 14m
Full, 100% of the Moon is Illuminated
Dec 27
Full
Dec 28
Full
Jan 4
Last Quarter
Jan 11
New
Jan 18
First Quarter

Hourly Weather History & Observations

Time (EST) Temp. Windchill Dew Point Humidity Pressure Visibility Wind Dir Wind Speed Gust Speed Precip Events Conditions
12:56 AM 36.0 °F 24.2 °F 33.1 °F 89% 29.48 in 2.5 mi ENE 24.2 mph 36.8 mph 0.07 in Rain Rain
1:56 AM 37.0 °F 28.1 °F 34.0 °F 89% 29.46 in 3.0 mi ENE 15.0 mph 27.6 mph 0.09 in Rain Rain
2:53 AM 37.4 °F 28.9 °F 33.8 °F 87% 29.41 in 2.5 mi NE 13.8 mph 24.2 mph 0.08 in Rain Light Rain
2:56 AM 37.0 °F 29.3 °F 34.0 °F 89% 29.43 in 2.5 mi NE 11.5 mph 20.7 mph 0.08 in Rain Light Rain
3:56 AM 37.0 °F 27.7 °F 34.0 °F 89% 29.39 in 4.0 mi NNE 16.1 mph 23.0 mph 0.04 in Rain Light Rain
4:56 AM 37.0 °F 28.9 °F 34.0 °F 89% 29.32 in 8.0 mi NNE 12.7 mph 29.9 mph 0.02 in Rain Light Rain
5:56 AM 37.9 °F 28.2 °F 35.1 °F 89% 29.31 in 2.5 mi NNE 18.4 mph 25.3 mph 0.07 in Rain Rain
6:56 AM 37.4 °F 28.9 °F 35.6 °F 93% 29.27 in 8.0 mi North 13.8 mph 25.3 mph N/A   Overcast
7:56 AM 37.9 °F 29.2 °F 35.1 °F 89% 29.30 in 3.0 mi North 15.0 mph 21.9 mph 0.00 in   Overcast
8:05 AM 37.4 °F 28.5 °F 35.6 °F 93% 29.28 in 1.5 mi North 15.0 mph 21.9 mph 0.00 in Rain Light Rain
8:56 AM 37.9 °F 28.9 °F 35.1 °F 89% 29.34 in 1.5 mi NNW 16.1 mph - 0.01 in   Overcast
9:56 AM 34.0 °F 23.4 °F 32.0 °F 92% 29.39 in 1.5 mi NW 17.3 mph 24.2 mph 0.01 in Rain Light Rain
10:56 AM 34.0 °F 21.8 °F 30.9 °F 89% 29.41 in 1.5 mi NW 23.0 mph 35.7 mph 0.01 in Rain Light Rain
11:56 AM 35.1 °F 24.5 °F 32.0 °F 89% 29.43 in 1.5 mi NW 18.4 mph 31.1 mph 0.01 in Rain Light Rain
12:43 PM 35.6 °F 25.5 °F 33.8 °F 93% 29.42 in 4.0 mi NW 17.3 mph 27.6 mph 0.00 in Rain Light Rain
12:56 PM 36.0 °F 24.7 °F 33.1 °F 89% 29.44 in 6.0 mi NNW 21.9 mph 31.1 mph 0.00 in   Mostly Cloudy
1:56 PM 36.0 °F 26.0 °F 30.9 °F 82% 29.47 in 10.0 mi NW 17.3 mph 26.5 mph 0.01 in   Overcast
2:56 PM 35.6 °F 25.5 °F 30.2 °F 81% 29.48 in 10.0 mi NW 17.3 mph 24.2 mph N/A   Overcast
3:56 PM 34.0 °F 23.8 °F 30.0 °F 85% 29.53 in 6.0 mi NW 16.1 mph - 0.00 in Rain , Snow Light Snow
4:56 PM 34.0 °F 24.2 °F 30.0 °F 85% 29.57 in 10.0 mi NW 15.0 mph 20.7 mph 0.00 in   Light Drizzle
5:56 PM 33.1 °F 20.3 °F 25.0 °F 72% 29.62 in 10.0 mi WNW 24.2 mph 32.2 mph 0.00 in   Light Drizzle
6:03 PM 33.8 °F 20.8 °F 24.8 °F 70% 29.61 in 10.0 mi WNW 26.5 mph 34.5 mph 0.00 in   Light Drizzle
6:56 PM 32.0 °F 18.9 °F 24.1 °F 73% 29.67 in 10.0 mi WNW 24.2 mph 32.2 mph 0.00 in   Light Drizzle
7:56 PM 30.9 °F 17.2 °F 21.9 °F 69% 29.71 in 10.0 mi WNW 25.3 mph 36.8 mph 0.00 in   Light Freezing Rain
8:56 PM 30.0 °F 16.6 °F 19.9 °F 66% 29.74 in 10.0 mi WNW 23.0 mph 35.7 mph 0.00 in   Mostly Cloudy
9:56 PM 28.9 °F 14.5 °F 19.9 °F 69% 29.76 in 10.0 mi WNW 25.3 mph 32.2 mph N/A   Mostly Cloudy
10:56 PM 28.9 °F 17.7 °F 19.0 °F 67% 29.80 in 10.0 mi NW 15.0 mph 33.4 mph N/A   Mostly Cloudy
11:56 PM 28.9 °F 13.7 °F 19.0 °F 67% 29.80 in 10.0 mi WNW 28.8 mph 39.1 mph N/A   Clear